Vorticity
15 18 20 22 23 19 11 5 3 3 5 4 3 -2 -5 -5 -2 1 2 6 7 3 -2 -2 4 7 11 11 9 10 10 8 7 9 12 12 10 6 4 6 8 7 7 4 4 7 7 7 11 14 16 18
11 11 12 13 17 22 22 16 8 2 2 3 5 5 2 -3 -5 -10 -8 0 -3 -1 3 3 5 5 6 3 1 5 9 11 9 6 8 11 13 12 9 9 7 3 4 3 3 6 4 6 8 6 7 10
16 15 14 12 11 13 18 21 19 12 5 2 3 5 6 4 2 -6 -7 -3 -5 5 10 3 -1 2 7 3 1 4 2 4 8 9 7 8 9 8 10 8 3 -0 3 6 8 8 6 5 3 3 7 7
20 21 20 18 16 13 12 13 18 20 15 8 3 2 4 5 8 4 2 2 4 12 12 5 3 6 9 4 3 1 0 2 0 4 7 7 7 6 6 6 7 9 8 9 9 6 4 2 2 7 8 4
16 20 23 24 23 22 19 13 10 14 17 16 10 4 2 1 4 5 4 3 2 5 9 7 4 7 7 7 10 3 -0 5 3 1 4 7 8 9 10 9 10 10 10 9 9 8 7 4 5 9 4 1
8 12 18 24 27 29 29 25 17 11 11 15 15 10 5 2 2 2 1 -1 -9 -13 1 10 4 1 0 1 11 18 13 10 12 9 7 8 6 7 6 3 4 3 4 5 7 8 9 9 8 10 5 2
5 6 9 15 22 28 32 36 34 24 13 9 13 14 10 6 4 3 0 1 -5 -16 -9 6 6 -0 3 5 -0 11 22 12 8 9 9 9 8 10 6 3 7 7 6 4 5 7 8 10 9 8 5 2
5 5 5 7 12 18 25 33 41 43 33 18 9 10 13 12 9 6 3 3 3 -3 -10 -12 -11 -11 1 14 5 -1 10 10 4 2 -2 -2 3 7 7 14 18 13 9 4 2 5 7 8 9 7 4 4
4 5 5 5 6 9 13 19 30 42 49 43 25 11 9 11 12 10 6 4 4 4 -1 -12 -17 -12 -6 -0 1 -2 0 3 5 9 3 1 8 10 9 13 14 11 10 10 9 8 3 4 10 9 6 7
3 4 4 5 5 6 7 9 14 24 39 52 49 34 18 10 11 11 9 6 5 2 3 2 -7 -3 6 10 17 13 0 -7 -1 16 19 15 13 9 10 7 5 9 8 8 8 6 4 7 11 8 7 6
2 3 4 4 5 5 5 6 7 11 19 34 48 51 41 25 14 11 11 9 7 2 1 6 1 -10 -16 -9 13 19 12 9 10 13 12 10 8 6 12 10 3 1 4 11 12 8 5 5 6 5 3 1
2 3 3 4 4 4 4 5 5 6 9 16 29 43 49 44 30 17 12 11 10 7 2 2 6 4 -13 -24 -13 1 13 19 14 10 8 5 5 8 9 5 4 3 4 6 6 8 7 3 0 -2 -1 9
3 2 2 3 3 3 3 4 4 4 5 8 13 25 39 47 46 35 20 13 11 11 9 5 3 7 5 -3 -12 -14 -7 -3 -6 2 14 17 16 11 -1 -6 1 11 16 4 -11 -1 12 10 9 11 12 18
2 1 2 2 2 2 3 3 4 4 4 5 6 11 22 34 45 48 38 23 13 9 11 12 9 5 6 8 4 -7 -17 -17 -12 -8 -5 2 13 13 5 9 10 5 12 18 11 14 22 20 20 15 1 -3
2 1 1 2 1 2 2 3 3 3 3 3 4 5 9 18 31 43 48 43 27 13 9 10 12 12 9 9 13 9 -3 -7 -4 -8 -15 -16 -0 12 8 6 8 2 -3 11 20 15 18 20 15 4 -6 -5
2 2 2 1 1 2 2 2 3 3 4 3 3 4 5 7 15 26 38 49 47 31 17 10 8 10 12 12 15 12 4 3 3 -1 -2 -3 -0 6 11 7 6 14 7 5 12 3 7 16 11 11 15 13
2 2 3 3 2 2 2 2 3 2 3 4 3 3 4 4 7 12 19 32 46 47 35 21 10 6 7 8 11 8 -3 -5 -2 -1 1 3 -9 -23 -3 17 11 18 14 -0 -0 -4 0 10 16 18 13 13
5 4 3 4 3 3 3 3 3 4 3 3 4 3 3 4 4 6 10 16 27 40 44 38 25 12 6 3 5 10 5 -4 -7 -6 -4 0 -3 -19 -17 -9 -14 -4 -1 -10 -10 -11 -12 -7 7 9 2 19
8 6 5 4 4 4 4 3 3 4 4 3 3 3 2 3 4 4 6 9 14 23 34 40 40 29 18 9 4 6 9 8 2 -2 -0 0 4 5 -1 -11 -16 -13 -15 -18 -19 -23 -25 -22 -10 -8 -14 5
8 7 6 5 4 4 4 4 4 3 4 5 4 3 2 3 4 4 5 6 8 13 21 28 37 40 34 24 14 7 5 7 7 3 3 4 6 10 10 7 3 1 -5 -10 -17 -25 -24 -21 -13 -8 -18 -19
7 7 7 6 5 4 3 3 4 3 3 3 5 4 4 4 3 3 5 6 6 7 12 17 23 31 37 37 29 19 10 5 6 5 2 2 3 5 9 11 8 8 8 4 -2 -8 -8 -4 -0 4 -4 -18
7 7 7 8 7 6 5 4 4 4 4 3 4 3 4 4 3 3 4 5 7 6 7 10 14 19 25 34 37 32 25 16 10 7 6 3 2 1 2 6 7 7 8 9 9 7 7 8 6 8 9 3
8 9 9 8 8 8 7 7 6 5 6 6 4 4 4 3 2 4 4 4 5 6 7 7 8 12 14 20 29 34 35 31 23 15 9 6 5 5 4 2 3 3 5 8 10 10 11 10 5 6 11 14
8 7 7 7 6 7 6 6 7 6 7 7 6 6 5 5 4 3 3 3 4 4 6 7 7 8 10 11 15 21 28 33 34 29 21 14 8 6 7 7 6 4 2 3 5 5 8 11 10 6 5 9
6 5 5 5 5 4 5 5 6 6 6 6 6 6 6 5 6 5 4 4 4 4 4 4 6 7 8 10 10 12 16 21 27 31 32 28 22 14 10 9 8 8 5 3 4 7 8 9 9 7 4 6
5 6 6 6 6 6 6 7 7 7 7 7 7 6 6 6 5 5 5 5 4 4 4 4 4 5 6 7 8 9 10 12 15 20 26 30 32 29 25 20 16 13 13 10 7 7 9 9 10 11 8 8
5 6 6 6 7 7 8 8 8 8 8 8 8 8 7 6 6 5 5 5 5 4 4 5 4 4 5 5 6 7 8 9 10 11 15 18 22 26 28 29 27 25 23 21 19 13 10 11 12 13 12 13
7 6 6 7 7 7 7 8 7 8 8 8 8 8 8 7 6 7 6 5 6 6 5 5 6 5 5 6 5 5 5 6 7 9 11 10 11 13 16 19 22 24 23 22 23 22 19 17 16 16 19 18
7 7 7 7 7 7 8 8 7 8 8 8 8 8 8 8 7 7 7 7 6 7 6 5 5 5 5 6 6 5 6 6 5 6 7 7 7 8 8 10 10 12 14 15 16 17 17 16 15 15 16 16
8 7 7 7 7 7 7 7 7 8 8 8 9 9 8 8 8 7 6 7 6 7 7 7 6 6 6 6 6 5 5 6 6 6 7 6 6 6 6 7 8 7 7 8 10 11 11 11 12 12 13 14
7 7 7 8 8 8 8 8 8 8 8 9 9 10 10 9 9 10 9 8 7 7 6 6 6 6 7 6 6 6 5 5 6 5 6 6 6 6 6 6 7 7 5 4 7 7 7 7 8 9 11 12
Height
5813 5813 5812 5812 5813 5814 5814 5815 5816 5817 5819 5820 5821 5821 5821 5821 5821 5823 5823 5822 5821 5820 5820 5820 5821 5822 5823 5824 5823 5823 5822 5821 5820 5820 5821 5821 5822 5823 5823 5823 5823 5822 5821 5821 5821 5821 5821 5820 5819 5819 5818 5818
5810 5810 5808 5807 5807 5807 5808 5809 5810 5811 5812 5813 5815 5816 5816 5815 5816 5819 5820 5819 5818 5817 5817 5816 5816 5817 5819 5819 5818 5818 5817 5816 5816 5816 5816 5817 5818 5818 5819 5819 5818 5817 5816 5816 5816 5817 5816 5815 5814 5814 5814 5813
5807 5806 5805 5803 5802 5801 5802 5802 5803 5805 5806 5807 5809 5809 5810 5809 5811 5813 5816 5816 5814 5814 5814 5812 5812 5813 5814 5814 5814 5813 5812 5811 5811 5811 5812 5812 5813 5814 5814 5814 5813 5813 5812 5811 5811 5812 5811 5811 5810 5809 5809 5808
5803 5802 5801 5799 5798 5796 5796 5796 5797 5798 5799 5801 5802 5803 5804 5804 5805 5808 5811 5812 5810 5809 5809 5808 5807 5808 5809 5810 5809 5809 5808 5807 5807 5806 5807 5807 5808 5809 5809 5809 5808 5808 5808 5807 5806 5807 5806 5806 5805 5804 5804 5803
5800 5798 5797 5795 5793 5792 5790 5790 5790 5791 5792 5794 5795 5797 5797 5798 5799 5802 5805 5805 5805 5805 5804 5803 5804 5804 5805 5805 5805 5805 5804 5803 5803 5802 5802 5802 5803 5804 5804 5803 5804 5803 5803 5802 5802 5801 5801 5801 5800 5800 5799 5798
5798 5795 5793 5791 5790 5788 5786 5784 5784 5785 5785 5786 5788 5790 5791 5792 5793 5796 5798 5798 5800 5801 5799 5799 5800 5800 5800 5801 5801 5800 5799 5799 5799 5798 5798 5798 5798 5799 5799 5798 5799 5798 5798 5797 5797 5796 5796 5796 5795 5795 5795 5794
5795 5793 5791 5789 5787 5784 5782 5780 5779 5779 5779 5779 5780 5782 5784 5785 5787 5789 5790 5792 5794 5795 5795 5795 5794 5795 5795 5796 5796 5796 5795 5795 5795 5794 5794 5794 5793 5794 5793 5793 5793 5793 5792 5792 5792 5791 5791 5791 5790 5790 5790 5790
5792 5790 5788 5786 5784 5781 5779 5776 5775 5774 5774 5774 5774 5774 5777 5778 5780 5782 5784 5785 5787 5789 5790 5789 5789 5790 5791 5791 5791 5791 5791 5790 5791 5790 5790 5789 5789 5789 5788 5787 5787 5787 5787 5787 5786 5786 5785 5786 5785 5786 5785 5786
5789 5787 5785 5783 5781 5779 5776 5774 5771 5770 5769 5768 5768 5768 5769 5771 5773 5776 5777 5779 5781 5783 5784 5784 5786 5788 5788 5786 5786 5787 5787 5786 5786 5785 5785 5784 5784 5784 5782 5782 5782 5782 5782 5781 5781 5780 5780 5780 5780 5780 5780 5781
5786 5784 5782 5780 5778 5776 5774 5771 5769 5767 5765 5764 5763 5763 5764 5765 5766 5769 5771 5772 5774 5776 5777 5779 5781 5782 5782 5780 5779 5781 5781 5781 5781 5781 5780 5779 5778 5778 5777 5777 5776 5776 5777 5776 5776 5775 5775 5775 5775 5775 5775 5776
5783 5781 5779 5777 5775 5773 5771 5769 5767 5764 5762 5760 5759 5759 5758 5759 5760 5762 5764 5766 5768 5769 5771 5773 5774 5775 5776 5775 5774 5775 5775 5776 5776 5776 5775 5774 5773 5772 5771 5771 5771 5771 5771 5771 5771 5770 5770 5770 5770 5770 5770 5769
5779 5778 5776 5774 5772 5770 5768 5766 5764 5762 5760 5757 5755 5754 5754 5754 5754 5756 5758 5759 5761 5763 5764 5766 5768 5769 5771 5770 5769 5770 5770 5770 5770 5770 5769 5768 5766 5765 5764 5765 5765 5765 5766 5767 5766 5765 5765 5765 5765 5765 5765 5764
5776 5774 5772 5771 5769 5767 5765 5763 5761 5759 5757 5755 5753 5751 5750 5749 5748 5749 5751 5753 5755 5757 5758 5759 5761 5763 5764 5764 5764 5765 5764 5763 5764 5764 5763 5762 5760 5759 5758 5758 5759 5759 5759 5760 5759 5759 5760 5759 5759 5759 5759 5757
5772 5770 5769 5767 5766 5764 5762 5760 5758 5756 5755 5753 5751 5749 5747 5745 5744 5744 5744 5746 5747 5750 5752 5753 5754 5756 5757 5758 5759 5759 5757 5756 5756 5757 5756 5756 5755 5754 5753 5752 5753 5752 5752 5752 5752 5752 5752 5752 5752 5752 5750 5749
5768 5767 5765 5764 5762 5761 5759 5758 5756 5754 5752 5750 5748 5746 5744 5743 5741 5739 5739 5740 5741 5743 5745 5746 5748 5748 5750 5751 5753 5755 5753 5749 5749 5749 5750 5750 5750 5750 5749 5747 5747 5746 5746 5745 5745 5745 5744 5744 5744 5744 5743 5742
5764 5763 5762 5760 5759 5757 5756 5754 5753 5751 5749 5747 5746 5744 5742 5740 5738 5736 5735 5734 5735 5736 5737 5739 5741 5742 5743 5744 5746 5749 5746 5742 5742 5743 5743 5743 5744 5744 5743 5742 5741 5740 5740 5739 5739 5738 5738 5738 5737 5737 5737 5737
5761 5759 5758 5757 5755 5754 5753 5751 5750 5748 5746 5745 5743 5741 5739 5737 5735 5733 5732 5730 5730 5730 5731 5732 5734 5735 5736 5737 5739 5740 5738 5736 5735 5736 5737 5737 5736 5736 5737 5736 5736 5735 5734 5733 5733 5732 5732 5732 5732 5732 5732 5731
5757 5756 5754 5753 5752 5750 5749 5748 5746 5745 5743 5742 5740 5738 5736 5734 5732 5731 5729 5727 5726 5725 5725 5726 5727 5728 5729 5730 5731 5731 5731 5731 5730 5729 5730 5731 5730 5729 5729 5729 5729 5729 5728 5727 5727 5726 5726 5726 5726 5726 5726 5726
5752 5751 5750 5749 5748 5746 5745 5744 5743 5741 5740 5738 5737 5736 5734 5732 5730 5728 5726 5724 5723 5721 5721 5720 5720 5721 5722 5723 5724 5725 5724 5724 5724 5723 5723 5723 5723 5722 5721 5721 5721 5721 5721 5721 5720 5719 5719 5720 5721 5721 5720 5720
5748 5747 5746 5744 5743 5742 5741 5740 5739 5737 5736 5735 5733 5732 5731 5729 5727 5725 5723 5722 5720 5718 5717 5716 5715 5715 5716 5716 5717 5718 5718 5718 5718 5718 5717 5716 5715 5715 5715 5714 5713 5713 5713 5713 5712 5712 5712 5712 5713 5714 5715 5714
5742 5742 5741 5740 5738 5737 5736 5735 5734 5733 5732 5731 5729 5728 5727 5726 5724 5722 5721 5719 5717 5715 5713 5712 5711 5710 5710 5710 5710 5711 5712 5712 5711 5711 5711 5711 5710 5708 5708 5708 5707 5706 5705 5705 5705 5704 5704 5704 5704 5705 5707 5707
5737 5736 5735 5735 5733 5732 5731 5730 5730 5729 5727 5726 5725 5724 5723 5721 5720 5719 5717 5716 5714 5712 5710 5709 5707 5706 5705 5705 5704 5704 5705 5705 5705 5705 5704 5704 5703 5702 5701 5701 5701 5700 5699 5698 5698 5697 5697 5697 5696 5696 5697 5698
5732 5731 5730 5729 5728 5727 5726 5725 5725 5724 5723 5722 5720 5719 5718 5717 5715 5714 5713 5712 5710 5709 5707 5706 5704 5702 5701 5700 5699 5698 5698 5698 5698 5698 5698 5697 5696 5696 5695 5695 5695 5694 5693 5692 5691 5690 5690 5690 5689 5688 5689 5690
5727 5726 5725 5724 5723 5722 5721 5720 5719 5718 5717 5717 5715 5714 5713 5712 5711 5709 5708 5707 5706 5705 5703 5702 5700 5699 5697 5696 5694 5693 5692 5692 5691 5691 5691 5690 5689 5689 5689 5688 5688 5688 5687 5686 5684 5684 5683 5682 5682 5680 5681 5682
5722 5721 5720 5719 5718 5717 5716 5715 5714 5713 5712 5711 5710 5709 5708 5707 5706 5705 5703 5702 5701 5700 5698 5697 5696 5695 5693 5692 5690 5689 5688 5686 5685 5685 5684 5684 5683 5682 5681 5681 5681 5681 5680 5679 5678 5677 5676 5675 5674 5674 5674 5675
5717 5716 5715 5714 5713 5712 5711 5710 5708 5707 5706 5705 5704 5703 5702 5701 5700 5699 5698 5697 5696 5694 5693 5692 5691 5690 5688 5687 5685 5684 5683 5682 5680 5679 5678 5677 5677 5676 5675 5674 5673 5673 5672 5672 5671 5669 5668 5668 5668 5667 5667 5667
5711 5710 5709 5708 5707 5706 5705 5704 5703 5702 5701 5700 5699 5698 5697 5696 5695 5694 5693 5692 5691 5689 5688 5687 5686 5685 5683 5682 5680 5679 5678 5676 5675 5674 5673 5672 5671 5670 5669 5667 5666 5665 5665 5664 5663 5662 5661 5661 5661 5660 5661 5660
5706 5705 5704 5703 5701 5700 5699 5699 5698 5697 5696 5695 5694 5692 5691 5690 5689 5688 5687 5686 5685 5684 5683 5681 5680 5679 5678 5676 5675 5674 5672 5671 5669 5668 5667 5666 5664 5663 5663 5661 5660 5658 5657 5656 5655 5654 5653 5653 5653 5653 5654 5653
5700 5699 5698 5697 5696 5695 5694 5693 5692 5691 5690 5689 5688 5687 5686 5685 5684 5683 5681 5681 5679 5678 5677 5676 5675 5673 5672 5671 5669 5668 5666 5665 5663 5662 5661 5660 5657 5657 5656 5655 5654 5652 5650 5648 5648 5647 5646 5646 5645 5645 5646 5644
5695 5694 5693 5692 5691 5690 5689 5688 5686 5685 5684 5683 5682 5681 5680 5679 5678 5677 5675 5674 5673 5672 5671 5670 5668 5667 5666 5665 5664 5662 5661 5659 5657 5656 5655 5654 5652 5650 5650 5649 5647 5646 5643 5642 5642 5640 5638 5638 5637 5637 5637 5636
5690 5689 5688 5687 5685 5684 5683 5682 5681 5680 5679 5678 5677 5675 5674 5673 5671 5670 5669 5668 5667 5666 5665 5663 5662 5661 5660 5659 5657 5656 5655 5653 5651 5650 5649 5647 5646 5644 5643 5642 5641 5640 5637 5635 5635 5634 5632 5630 5629 5629 5628 5627